IZ2OSD Weather Reports


time (UTC)temp
C
wind
direction
speed
KPH
gust
KPH
rain 1hr
cm
rain 24hr
cm
rain mn
cm
humidity
%
barometer
mb
20260502163911 22 315 0.0 1.6 0.00 0.00 0.00 33 1019.2
20260502162901 22 0.0 0.0 0.00 0.00 0.00 33 1019.2
20260502161857 22 0.0 1.6 0.00 0.00 0.00 33 1019.6
20260502160847 22 315 0.0 1.6 0.00 0.00 0.00 34 1019.5
20260502151823 22 0.0 0.0 0.00 0.00 0.00 34 1019.9
20260502150813 22 292 3.2 6.4 0.00 0.00 0.00 33 1020.0
20260502130713 23 315 0.0 3.2 0.00 0.00 0.00 33 1021.5
20260502123720 23 112 0.0 1.6 0.00 0.00 0.00 35 1022.0
20260502122657 21 292 3.2 6.4 0.00 0.00 0.00 35 1022.2
20260502121648 22 112 0.0 3.2 0.00 0.00 0.00 35 1022.4
20260502120644 21 292 4.8 4.8 0.00 0.00 0.00 34 1022.4
20260502115640 22 135 4.8 6.4 0.00 0.00 0.00 36 1022.6
20260502114637 22 202 4.8 6.4 0.00 0.00 0.00 35 1022.8
20260502113633 22 0.0 0.0 0.00 0.00 0.00 35 1022.8
20260502112629 22 292 1.6 3.2 0.00 0.00 0.00 35 1022.9
20260502111626 21 112 3.2 6.4 0.00 0.00 0.00 35 1023.2
20260502110623 22 292 1.6 3.2 0.00 0.00 0.00 36 1023.4
20260502105639 22 337 3.2 4.8 0.00 0.00 0.00 37 1023.5
20260502104616 22 0.0 1.6 0.00 0.00 0.00 37 1023.7
20260502103612 22 292 3.2 4.8 0.00 0.00 0.00 36 1024.0
20260502102609 23 292 1.6 4.8 0.00 0.00 0.00 36 1024.0
20260502100609 22 292 0.0 1.6 0.00 0.00 0.00 38 1024.3
20260502090544 21 315 1.6 3.2 0.00 0.00 0.00 40 1024.9
20260502071451 16 112 1.6 3.2 0.00 0.00 0.00 50 1025.3
20260502070449 19 292 0.0 3.2 0.00 0.00 0.00 46 1025.3
20260502065437 17 292 0.0 1.6 0.00 0.00 0.00 53 1025.4
20260502064434 18 292 0.0 1.6 0.00 0.00 0.00 51 1025.2
20260502063433 18 292 0.0 1.6 0.00 0.00 0.00 53 1025.1
20260502062427 16 0.0 1.6 0.00 0.00 0.00 56 1025.4
20260502061504 16 292 1.6 3.2 0.00 0.00 0.00 59 1025.0
20260502060433 15 292 1.6 4.8 0.00 0.00 0.00 61 1025.1
20260502055410 13 292 3.2 3.2 0.00 0.00 0.00 63 1025.0
20260502054426 13 292 3.2 4.8 0.00 0.00 0.00 63 1025.1
20260502053401 12 315 3.2 4.8 0.00 0.00 0.00 65 1025.2
20260502052417 12 315 1.6 3.2 0.00 0.00 0.00 66 1025.1
20260502051349 11 315 3.2 3.2 0.00 0.00 0.00 67 1025.0
20260502050348 11 315 1.6 3.2 0.00 0.00 0.00 69 1025.0
20260502045342 11 315 3.2 3.2 0.00 0.00 0.00 70 1024.9
20260502044339 10 315 3.2 4.8 0.00 0.00 0.00 71 1024.9
20260502043335 10 315 1.6 3.2 0.00 0.00 0.00 72 1024.7
20260502042326 10 315 0.0 1.6 0.00 0.00 0.00 73 1024.6
20260502041322 10 315 1.6 3.2 0.00 0.00 0.00 73 1024.9
20260502040318 10 315 1.6 3.2 0.00 0.00 0.00 74 1024.9
20260502035356 10 315 0.0 1.6 0.00 0.00 0.00 74 1024.7
20260502034311 10 315 0.0 1.6 0.00 0.00 0.00 73 1024.7
20260502033328 10 315 0.0 1.6 0.00 0.00 0.00 73 1024.7
20260502032306 10 0.0 0.0 0.00 0.00 0.00 72 1024.8
20260502031304 10 0.0 0.0 0.00 0.00 0.00 72 1024.8
20260502030257 10 315 1.6 3.2 0.00 0.00 0.00 71 1024.7
20260502025248 10 315 1.6 3.2 0.00 0.00 0.00 71 1024.6
20260502024244 10 315 4.8 6.4 0.00 0.00 0.00 70 1024.9
20260502023238 10 315 3.2 4.8 0.00 0.00 0.00 71 1024.8
20260502022235 10 315 4.8 4.8 0.00 0.00 0.00 71 1024.7
20260502021232 10 315 4.8 4.8 0.00 0.00 0.00 71 1024.9
20260502020250 10 315 1.6 3.2 0.00 0.00 0.00 71 1025.0
20260502015227 11 315 3.2 4.8 0.00 0.00 0.00 70 1024.7
20260502014225 11 315 3.2 4.8 0.00 0.00 0.00 69 1024.8
20260502013220 11 315 3.2 4.8 0.00 0.00 0.00 70 1024.8
20260502012238 11 315 1.6 3.2 0.00 0.00 0.00 70 1024.9
20260502011215 11 315 1.6 4.8 0.00 0.00 0.00 69 1024.6
20260502010208 11 315 3.2 4.8 0.00 0.00 0.00 70 1024.8
20260502005219 11 292 3.2 4.8 0.00 0.00 0.00 70 1024.8
20260502004156 11 315 3.2 3.2 0.00 0.00 0.00 69 1025.0
20260502003155 11 292 0.0 1.6 0.00 0.00 0.00 70 1024.9
20260502002148 11 292 1.6 3.2 0.00 0.00 0.00 69 1024.9
20260502001145 11 292 0.0 1.6 0.00 0.00 0.00 68 1024.9
20260502000155 11 292 0.0 1.6 0.00 0.00 0.00 68 1025.0
20260501235155 11 292 1.6 3.2 0.00 0.00 0.00 68 1025.2
20260501234122 11 292 1.6 3.2 0.00 0.00 0.00 68 1024.7
20260501233121 11 292 1.6 3.2 0.00 0.00 0.00 67 1025.0
20260501232114 11 292 0.0 1.6 0.00 0.00 0.00 66 1024.9
20260501231110 12 292 1.6 3.2 0.00 0.00 0.00 65 1024.9
20260501230108 12 292 0.0 1.6 0.00 0.00 0.00 65 1025.0
20260501225103 12 292 0.0 1.6 0.00 0.00 0.00 64 1024.8
20260501224124 12 0.0 0.0 0.00 0.00 0.00 65 1024.9
20260501223059 12 0.0 0.0 0.00 0.00 0.00 66 1024.9
20260501222054 12 292 1.6 3.2 0.00 0.00 0.00 64 1024.9
20260501221051 12 292 1.6 3.2 0.00 0.00 0.00 64 1024.6
20260501220048 12 292 1.6 3.2 0.00 0.00 0.00 64 1024.6
20260501215038 12 0.0 0.0 0.00 0.00 0.00 63 1024.7
20260501214034 12 0.0 0.0 0.00 0.00 0.00 63 1024.7
20260501213052 13 0.0 0.0 0.00 0.00 0.00 60 1024.6
20260501212027 13 292 0.0 1.6 0.00 0.00 0.00 61 1024.7
20260501211023 13 0.0 1.6 0.00 0.00 0.00 61 1024.6
20260501210014 13 0.0 0.0 0.00 0.00 0.00 61 1024.6
20260501205030 13 247 0.0 1.6 0.00 0.00 0.00 61 1024.8
20260501204006 13 0.0 0.0 0.00 0.00 0.00 60 1024.5
20260501203022 14 0.0 0.0 0.00 0.00 0.00 61 1024.5
20260501202501 15 0.0 0.0 0.00 0.00 0.00 60 1024.4
20260501201537 15 0.0 0.0 0.00 0.00 0.00 59 1024.3
20260501200007 15 0.0 0.0 0.00 0.00 0.00 57 1024.1
20260501195004 16 0.0 0.0 0.00 0.00 0.00 49 1024.3
20260501194000 16 0.0 0.0 0.00 0.00 0.00 48 1024.0
20260501193010 16 0.0 0.0 0.00 0.00 0.00 48 1024.0
20260501191946 16 0.0 0.0 0.00 0.00 0.00 48 1023.7
20260501190945 17 0.0 0.0 0.00 0.00 0.00 47 1023.5
20260501185939 17 0.0 0.0 0.00 0.00 0.00 45 1023.6
20260501184956 17 0.0 0.0 0.00 0.00 0.00 46 1023.6
20260501183926 17 0.0 0.0 0.00 0.00 0.00 46 1023.3
20260501182924 17 0.0 0.0 0.00 0.00 0.00 45 1023.4
20260501181915 18 0.0 0.0 0.00 0.00 0.00 43 1023.6
20260501180911 18 0.0 0.0 0.00 0.00 0.00 43 1023.3
20260501175905 18 0.0 0.0 0.00 0.00 0.00 41 1023.2
20260501174902 18 0.0 0.0 0.00 0.00 0.00 41 1023.2
20260501173859 19 0.0 1.6 0.00 0.00 0.00 40 1023.3
20260501172915 19 0.0 0.0 0.00 0.00 0.00 39 1023.3
20260501171855 19 315 0.0 1.6 0.00 0.00 0.00 39 1022.9
20260501170848 19 0.0 0.0 0.00 0.00 0.00 40 1023.1
20260501165845 19 112 0.0 3.2 0.00 0.00 0.00 39 1023.3
20260501164901 20 315 0.0 1.6 0.00 0.00 0.00 40 1023.4